#timestamp,LO_Frequency,Hit,StdDev 
1610733615.3,286047000.7,N
1610733635.1,286047001.8,N
1610733655.9,286047004.1,N
1610733675.7,286047006.0,N
1610733695.5,286047003.6,N
1610733715.4,286047002.9,N
1610733735.2,286047005.6,N
1610733755.1,286047002.8,N
1610733756.0,286047002.8,N
1610733775.8,286047001.9,N
1610733795.6,286047001.4,N
1610733815.5,286047003.8,N
1610733835.3,286047005.9,N
1610733855.1,286047005.4,N
1610733875.9,286047005.4,N
1610733895.7,286047006.9,N
1610733915.6,286047003.8,N
1610733935.4,286047003.4,N
1610733955.2,286047005.1,N
1610733975.1,286047003.5,N
1610733976.0,286047003.5,N
1610733995.8,286047005.7,N
1610734015.7,286047006.4,N
1610734035.5,286047003.2,N
1610734055.3,286047006.0,N
1610734075.2,286047007.3,N
1610734095.0,286047007.9,N
1610734095.9,286047007.9,N
1610734115.8,286047008.1,Y
1610734135.6,286047003.8,P
1610734155.4,286047005.5,P
1610734175.3,286047004.9,P
1610734195.1,286047008.9,Y
1610734215.8,286047004.7,P
1610734235.7,286047006.6,P
1610734255.5,286047004.6,P
1610734275.4,286047007.5,Y
1610734295.2,286047000.5,P
1610734315.0,286046996.8,N
1610734315.9,286046996.8,N
1610734335.8,286046998.9,N
1610734355.6,286046999.9,N
1610734375.5,286047001.0,N
1610734395.3,286046997.1,N
1610734415.1,286046997.9,N
1610734435.9,286046997.0,N
1610734455.7,286047000.6,N
1610734475.5,286047000.1,N
1610734495.4,286046999.8,N
1610734515.2,286047004.5,N
1610734535.1,286047007.1,N
1610734536.0,286047007.1,N
1610734555.8,286047008.8,N
1610734575.6,286047003.8,N
1610734595.5,286047003.3,N
1610734615.3,286047001.6,N
1610734635.1,286046999.5,N
1610734655.9,286046999.0,N
1610734675.7,286046997.5,N
1610734695.6,286046995.2,N
1610734715.4,286046992.7,N
1610734735.2,286046991.0,N
1610734755.1,286046990.1,N
1610734756.0,286046990.1,N
1610734775.8,286046995.4,N
1610734795.7,286046996.0,N
1610734815.5,286046994.1,N
1610734835.3,286046998.0,N
1610734855.2,286046994.2,N
1610734875.0,286046992.2,N
1610734875.9,286046992.2,N
1610734895.7,286046997.9,N
1610734915.6,286046995.3,N
1610734935.4,286046993.2,N
1610734955.3,286046992.0,N
1610734975.1,286046991.8,N
1610734995.8,286046994.4,N
1610735015.7,286046990.1,N
1610735035.5,286046991.1,N
1610735055.4,286046987.9,N
1610735075.2,286046992.6,N
1610735095.0,286046994.7,N
1610735095.9,286046994.7,N
1610735115.8,286046986.3,Y
1610735135.6,286047001.8,P
1610735155.5,286047001.0,N
1610735175.3,286046996.9,N
1610735195.1,286046997.3,N
1610735215.9,286046993.3,N
1610735235.7,286046997.9,N
1610735255.5,286046998.4,N
1610735275.4,286046995.1,N
1610735295.2,286046993.3,N
1610735315.1,286046995.6,N
1610735316.0,286046995.6,N
1610735335.8,286046995.6,N
1610735355.6,286046996.3,N
1610735375.5,286046995.8,N
1610735395.3,286046996.4,N
1610735415.2,286046999.9,N
1610735435.9,286047000.0,N
1610735455.7,286047001.1,N
1610735475.6,286046996.5,N
1610735495.4,286046995.4,N
1610735515.2,286046997.1,N
1610735535.1,286046999.2,N
1610735536.0,286046999.2,N
1610735555.8,286047000.5,N
1610735575.7,286046999.3,N
1610735595.5,286046995.7,N
1610735645.4,286046995.7,E
1610735655.3,286046997.4,N
1610735675.1,286047002.5,P
1610735695.9,286047003.8,N
1610735715.7,286047004.4,N
1610735735.5,286047002.5,N
1610735755.4,286046999.1,N
1610735775.2,286046998.4,N
1610735795.1,286046997.7,N
1610735796.0,286046997.7,N
1610735815.8,286046999.6,N
1610735835.6,286046998.7,N
1610735855.5,286047000.7,N
1610735875.3,286046999.7,N
1610735895.2,286047001.1,N
1610735915.9,286047000.2,N
1610735935.7,286047000.8,N
1610735955.6,286046998.9,N
1610735975.4,286046996.8,N
1610735995.2,286046997.9,N
1610736015.1,286046998.0,N
1610736016.0,286046998.0,N
1610736035.8,286046995.0,N
1610736055.7,286046997.6,N
1610736075.5,286046997.1,N
1610736095.3,286046996.9,N
1610736115.2,286046998.6,N
1610736135.0,286046998.4,N
1610736135.9,286046998.4,N
1610736155.8,286046996.9,N
1610736175.6,286046997.3,N
1610736195.4,286046996.8,N
1610736215.3,286046996.9,N
1610736235.1,286046997.5,N
1610736255.8,286046997.3,N
1610736275.7,286046995.7,N
1610736295.5,286046994.2,Y
1610736315.4,286046995.2,P
1610736335.2,286046995.2,P
1610736355.0,286046999.0,N
1610736355.9,286046999.0,N
1610736375.8,286047002.5,N
1610736395.6,286047000.1,N
1610736415.5,286047000.6,N
1610736435.3,286046998.5,N
1610736455.1,286046999.2,N
1610736475.9,286046998.2,N
1610736495.7,286046999.9,N
1610736515.5,286047004.3,N
1610736535.4,286047006.7,N
1610736555.2,286047005.4,N
1610736575.1,286047001.5,N
1610736576.0,286047001.5,N
1610736595.8,286047001.6,N
1610736615.6,286047001.6,N
1610736635.5,286047001.7,N
1610736655.3,286047001.9,N
1610736675.2,286047000.0,N
1610736695.9,286047000.8,N
1610736715.7,286047007.1,N
1610736735.6,286047010.1,Y
1610736755.4,286047006.6,P
1610736775.3,286047006.9,N
1610736795.1,286047009.1,P
1610736796.0,286047009.1,N
1610736815.8,286047005.1,N
1610736835.7,286047008.0,N
1610736855.5,286047008.2,Y
1610736875.3,286047003.9,P
1610736895.2,286047005.8,P
1610736915.0,286047007.3,P
1610736915.9,286047007.3,Y
1610736935.8,286047001.1,P
1610736955.6,286047004.4,N
1610736975.4,286047003.5,N
1610736995.3,286047002.1,N
1610737015.1,286047001.3,N
1610737035.9,286047003.4,N
1610737055.7,286047003.0,N
1610737075.5,286047003.4,N
1610737095.4,286047004.3,Y
1610737115.2,286046998.2,P
1610737135.0,286046996.7,N
1610737135.9,286046996.7,N
1610737155.8,286046993.5,N
1610737175.6,286046994.0,N
1610737195.5,286046994.8,N
